110P/Hartley 3 (2021)

Japanese version
Home page
Updated on September 18, 2021

---------------------------------------------------------------------

* Profile

* Pictures

* Orbital Elements

Epoch 2021 Nov. 2.0 TT = JDT 2459520.5
T 2021 Oct. 18.30271 TT                                 Rudenko
q   2.4557239            (2000.0)            P               Q
n   0.14415761     Peri.  167.44443     -0.09111945     -0.97686497
a   3.6022817      Node   287.53555     +0.89522339     +0.00474799
e   0.3182865      Incl.   11.70674     +0.43620216     -0.21380433
P   6.84
From 2699 observations 1993 June 23-2021 Aug. 2, mean residual 0".8.

* Finding Charts

* Magnitudes Graph

        m1 =  11.0 + 5 log d +  13.0 log r  [    ,-140]  (             - 2021 May  31)
        m1 = -25.2 + 5 log d + 100   log r  [-140,   0]  (2021 May  31 - 2021 Oct. 18)
        m1 =   0.2 + 5 log d +  35   log r  [   0,    ]  (2021 Oct. 18 -             )

---------------------------------------------------------------------

The orbital elements are published on M.P.E.C. 2021-P47.
The charts are made with StellaNavigator Ver.10 (AstroArts).
The magnitudes graphs are made with Comet for Windows.

---------------------------------------------------------------------

Copyright(C) Seiichi Yoshida (comet@aerith.net). All rights reserved.